Location: Colorado Springs
(38.8340°N, 104.8210°W)
Time: 16:42:29
(UTC-06:00)

ISS - Pass Details

Date: 09 October 2017
Orbit: 400 x 408 km, 51.6° (Epoch: 24 October)

Event Time Altitude Azimuth Distance (km) Brightness Sun altitude
Rises 20:06:14 0° 316° (NW) 2,328 0.8 -19.7°
Reaches altitude 10° 20:08:40 10° 334° (NNW) 1,467 -0.6 -20.2°
Enters shadow 20:10:27 19° 4° (N) 1,037 -1.8 -20.5°
